WB2IFS-13 Weather Reports


time (UTC)temp
C
wind
direction
speed
KPH
gust
KPH
rain 1hr
cm
rain 24hr
cm
rain mn
cm
humidity
%
barometer
mb
20260510191459 28 307 3.2 12.9 0.00 0.00 0.00 39 1013.8
20260510190000 28 131 3.2 14.5 0.00 0.00 0.00 40 1013.7
20260510184459 28 170 3.2 14.5 0.00 0.00 0.00 40 1013.8
20260510182959 28 187 3.2 11.3 0.00 0.00 0.00 42 1013.9
20260510181459 28 146 3.2 8.0 0.00 0.00 0.00 43 1014.0
20260510180002 28 127 3.2 8.0 0.00 0.00 0.00 41 1014.0
20260510174500 28 98 3.2 6.4 0.00 0.00 0.00 46 1014.1
20260510173001 28 70 1.6 8.0 0.00 0.00 0.00 42 1014.2
20260510171500 27 214 1.6 4.8 0.00 0.00 0.00 44 1014.2
20260510170002 27 120 3.2 12.9 0.00 0.00 0.00 45 1014.3
20260510164500 27 212 1.6 6.4 0.00 0.00 0.00 44 1014.6
20260510163000 27 123 1.6 6.4 0.00 0.00 0.00 44 1014.7
20260510161458 27 50 1.6 4.8 0.00 0.00 0.00 49 1014.6
20260510155959 26 270 3.2 9.7 0.00 0.00 0.00 48 1014.7
20260510154459 26 115 1.6 6.4 0.00 0.00 0.00 49 1014.8
20260510152959 26 302 1.6 4.8 0.00 0.00 0.00 49 1014.8
20260510151458 25 77 1.6 6.4 0.00 0.00 0.00 49 1014.8
20260510150004 25 66 1.6 6.4 0.00 0.00 0.00 53 1014.6
20260510144458 25 165 1.6 3.2 0.00 0.00 0.00 51 1014.2
20260510142959 24 70 1.6 4.8 0.00 0.00 0.00 55 1013.9
20260510141459 23 34 1.6 8.0 0.00 0.00 0.00 59 1013.9
20260510140001 21 300 1.6 4.8 0.00 0.00 0.00 67 1014.1
20260510134459 20 150 0.0 1.6 0.00 0.00 0.00 73 1014.1
20260510132959 18 176 0.0 4.8 0.00 0.00 0.00 77 1014.2
20260510131458 17 122 0.0 1.6 0.00 0.00 0.00 84 1014.4
20260510125959 16 277 0.0 3.2 0.00 0.00 0.00 87 1014.6
20260510124459 15 273 0.0 1.6 0.00 0.00 0.00 92 1014.7
20260510123000 14 252 0.0 3.2 0.00 0.00 0.00 98 1014.7
20260510121459 13 240 0.0 1.6 0.00 0.00 0.00 98 1014.4
20260510120001 12 141 0.0 0.0 0.00 0.00 0.00 98 1014.2
20260510114458 11 141 0.0 0.0 0.00 0.00 0.00 98 1014.0
20260510112959 11 141 0.0 0.0 0.00 0.00 0.00 98 1013.8
20260510111459 11 141 0.0 0.0 0.00 0.00 0.00 98 1013.5
20260510110001 10 141 0.0 0.0 0.00 0.00 0.00 97 1013.3
20260510104459 10 141 0.0 0.0 0.00 0.00 0.00 97 1013.0
20260510103000 10 141 0.0 0.0 0.00 0.00 0.00 97 1013.0
20260510101458 10 141 0.0 0.0 0.00 0.00 0.00 97 1012.7
20260510095959 10 141 0.0 0.0 0.00 0.00 0.00 96 1012.6
20260510094459 11 141 0.0 0.0 0.00 0.00 0.00 96 1012.5
20260510092958 11 141 0.0 0.0 0.00 0.00 0.00 97 1012.6
20260510091459 11 141 0.0 1.6 0.00 0.00 0.00 96 1012.5
20260510085959 11 141 0.0 1.6 0.00 0.00 0.00 96 1012.2
20260510084459 11 141 0.0 0.0 0.00 0.00 0.00 96 1012.3
20260510082958 11 141 0.0 1.6 0.00 0.00 0.00 96 1011.9
20260510081459 11 141 0.0 0.0 0.00 0.00 0.00 96 1011.8
20260510080000 11 141 0.0 0.0 0.00 0.00 0.00 95 1011.7
20260510074458 12 141 0.0 0.0 0.00 0.00 0.00 95 1011.6
20260510073000 12 141 0.0 0.0 0.00 0.00 0.00 94 1011.3
20260510071458 12 141 0.0 0.0 0.00 0.00 0.00 94 1011.4
20260510065959 12 141 0.0 0.0 0.00 0.00 0.00 93 1011.1
20260510064459 12 141 0.0 0.0 0.00 0.00 0.00 94 1011.2
20260510063003 12 141 0.0 0.0 0.00 0.00 0.00 93 1011.2
20260510061500 12 141 0.0 1.6 0.00 0.00 0.00 93 1011.2
20260510055959 12 141 0.0 0.0 0.00 0.00 0.00 94 1011.1
20260510054500 12 141 0.0 0.0 0.00 0.00 0.00 93 1011.2
20260510053000 13 141 0.0 0.0 0.00 0.00 0.00 93 1011.2
20260510051459 13 141 0.0 0.0 0.00 0.00 0.00 93 1011.2
20260510050001 13 141 0.0 0.0 0.00 0.00 0.00 92 1011.4
20260510044500 13 141 0.0 0.0 0.00 0.00 0.00 92 1011.4
20260510043000 13 141 0.0 0.0 0.00 0.00 0.00 92 1011.6
20260510041500 13 141 0.0 0.0 0.00 0.00 0.00 91 1011.4
20260510040000 14 141 0.0 0.0 0.00 0.00 0.00 90 1011.5
20260510034459 14 141 0.0 0.0 0.00 0.00 0.00 89 1011.3
20260510033000 15 141 0.0 0.0 0.00 0.00 0.00 87 1011.2
20260510031500 15 141 0.0 0.0 0.00 0.00 0.00 86 1011.0
20260510030002 15 141 0.0 0.0 0.00 0.00 0.00 85 1011.0
20260510024459 16 141 0.0 0.0 0.00 0.00 0.00 84 1011.0
20260510022959 16 141 0.0 0.0 0.00 0.00 0.00 83 1010.9
20260510020002 16 141 0.0 0.0 0.00 0.00 0.00 82 1010.6
20260510014459 17 141 0.0 1.6 0.00 0.00 0.00 81 1010.4
20260510012959 17 141 0.0 1.6 0.00 0.00 0.00 80 1010.3
20260510011500 17 141 0.0 1.6 0.00 0.00 0.00 78 1010.2
20260510010001 17 140 0.0 1.6 0.00 0.00 0.00 77 1010.1
20260510004500 18 143 0.0 3.2 0.00 0.00 0.00 76 1010.0
20260510002959 18 136 0.0 1.6 0.00 0.00 0.00 73 1009.9
20260510001500 18 135 0.0 3.2 0.00 0.00 0.00 73 1009.6
20260509235959 19 104 0.0 0.0 0.00 0.00 0.00 70 1009.5
20260509234500 20 103 0.0 0.0 0.00 0.00 0.00 67 1009.4
20260509232959 21 104 0.0 0.0 0.00 0.00 0.00 65 1009.4
20260509231459 22 103 0.0 3.2 0.00 0.00 0.00 59 1009.1
20260509225959 22 150 1.6 6.4 0.00 0.00 0.00 58 1009.2
20260509224459 22 113 1.6 6.4 0.00 0.00 0.00 57 1009.3
20260509222959 23 125 1.6 3.2 0.00 0.00 0.00 56 1009.3
20260509221459 23 176 1.6 6.4 0.00 0.00 0.00 56 1009.4
20260509215959 23 122 1.6 3.2 0.00 0.00 0.00 55 1009.3
20260509214459 24 143 1.6 6.4 0.00 0.00 0.00 53 1009.4
20260509212958 24 151 4.8 14.5 0.00 0.00 0.00 53 1009.4
20260509211459 24 153 3.2 9.7 0.00 0.00 0.00 54 1009.2
20260509210000 24 234 3.2 9.7 0.00 0.00 0.00 54 1009.0
20260509204459 23 51 4.8 9.7 0.00 0.00 0.00 53 1008.9
20260509203000 23 77 3.2 9.7 0.00 0.00 0.00 53 1009.1
20260509201500 24 102 3.2 11.3 0.00 0.00 0.00 54 1009.4
20260509195959 23 217 3.2 9.7 0.00 0.00 0.00 55 1009.5
20260509194459 23 167 3.2 8.0 0.00 0.00 0.00 57 1009.9
20260509192959 22 176 4.8 17.7 0.00 0.00 0.00 55 1010.1